Weather History for KBGF - February, 2013

Change the Weather History Date:

Monday, February 11, 2013

  Actual Average (KTHA) Record (KTHA)
Temperature  
Mean Temperature 48 °F -  
Max Temperature 57 °F 52 °F 57 °F (2013)
Min Temperature 39 °F 28 °F 21 °F (2014)
Degree Days  
Heating Degree Days 17    
Moisture  
Dew Point 43 °F    
Average Humidity 76    
Maximum Humidity 94    
Minimum Humidity 44    
Precipitation  
Precipitation 0.00 in - - ()
Sea Level Pressure  
Sea Level Pressure 30.08 in    
Wind  
Wind Speed 7 mph (WSW)    
Max Wind Speed 16 mph    
Max Gust Speed -    
Visibility 10 miles    
Events      
Averages and records for this station are not official NWS values.
T = Trace of Precipitation, MM = Missing Value Source: NWS Daily Summary

Daily Weather History Graph

Daily Weather History Graph

Search for Another Location

Airport or City:

Trip Planner

Search our weather history database for the weather conditions in past years. The results will help you decide how hot, cold, wet, or windy it might be!

Date:

Astronomy

Feb. 11, 2013 Rise Set
Actual Time 7:34 AM EST 6:23 PM EST
Civil Twilight 7:08 AM EST 6:49 PM EST
Nautical Twilight 6:38 AM EST 7:19 PM EST
Astronomical Twilight 6:08 AM EST 7:48 PM EST
Moon 8:03 AM EST (2/11) 8:12 PM EST (2/11)
Length of Visible Light 11h 41m
Length of Day
10h 48m
Waxing Crescent, 3% of the Moon is Illuminated
Feb 11
Waxing Crescent
Feb 17
First Quarter
Feb 25
Full
Mar 4
Last Quarter
Mar 11
New

Hourly Weather History & Observations

Time (EST) Temp. Windchill Dew Point Humidity Pressure Visibility Wind Dir Wind Speed Gust Speed Precip Events Conditions
12:15 AM 57.2 °F - 53.6 °F 88% 29.95 in 10.0 mi South 11.5 mph - N/A   Overcast
12:35 AM 57.2 °F - 53.6 °F 88% 29.98 in 10.0 mi SSW 6.9 mph - N/A   Overcast
12:55 AM 57.2 °F - 53.6 °F 88% 29.96 in 10.0 mi South 11.5 mph - N/A   Overcast
1:35 AM 57.2 °F - 53.6 °F 88% 29.99 in 10.0 mi South 12.7 mph - N/A   Overcast
1:55 AM 57.2 °F - 53.6 °F 88% 29.97 in 10.0 mi South 16.1 mph - N/A   Overcast
2:15 AM 57.2 °F - 53.6 °F 88% 30.00 in 10.0 mi South 4.6 mph - N/A   Overcast
2:35 AM 57.2 °F - 53.6 °F 88% 29.99 in 10.0 mi South 9.2 mph - N/A   Overcast
2:55 AM 57.2 °F - 55.4 °F 94% 30.01 in 10.0 mi South 10.4 mph - N/A   Overcast
3:15 AM 57.2 °F - 55.4 °F 94% 30.01 in 10.0 mi South 5.8 mph - N/A   Overcast
3:35 AM 57.2 °F - 55.4 °F 94% 30.00 in 10.0 mi South 5.8 mph - N/A   Overcast
3:55 AM 57.2 °F - 55.4 °F 94% 30.01 in 10.0 mi SW 5.8 mph - N/A   Overcast
4:15 AM 57.2 °F - 55.4 °F 94% 30.01 in 10.0 mi SW 8.1 mph - N/A   Overcast
4:35 AM 57.2 °F - 55.4 °F 94% 30.02 in 10.0 mi SW 10.4 mph - N/A   Overcast
4:55 AM 57.2 °F - 55.4 °F 94% 30.01 in 10.0 mi WSW 6.9 mph - N/A   Overcast
5:15 AM 57.2 °F - 55.4 °F 94% 30.01 in 10.0 mi WSW 6.9 mph - N/A   Mostly Cloudy
5:35 AM 57.2 °F - 55.4 °F 94% 30.01 in 10.0 mi WSW 6.9 mph - N/A   Overcast
5:55 AM 57.2 °F - 55.4 °F 94% 30.02 in 10.0 mi WSW 6.9 mph - N/A   Mostly Cloudy
6:15 AM 57.2 °F - 53.6 °F 88% 30.03 in 10.0 mi WSW 6.9 mph - N/A   Overcast
6:35 AM 57.2 °F - 53.6 °F 88% 30.04 in 10.0 mi WSW 6.9 mph - N/A   Mostly Cloudy
6:55 AM 55.4 °F - 53.6 °F 94% 30.05 in 10.0 mi WSW 5.8 mph - N/A   Overcast
7:15 AM 55.4 °F - 53.6 °F 94% 30.05 in 10.0 mi WSW 5.8 mph - N/A   Overcast
7:35 AM 55.4 °F - 53.6 °F 94% 30.07 in 10.0 mi West 5.8 mph - N/A   Scattered Clouds
7:55 AM 55.4 °F - 51.8 °F 88% 30.07 in 10.0 mi Calm Calm - N/A   Scattered Clouds
8:15 AM 55.4 °F - 51.8 °F 88% 30.07 in 10.0 mi NW 4.6 mph - N/A   Overcast
8:35 AM 53.6 °F - 48.2 °F 82% 30.09 in 10.0 mi WNW 6.9 mph - N/A   Partly Cloudy
8:55 AM 53.6 °F - 48.2 °F 82% 30.10 in 10.0 mi West 3.5 mph - N/A   Clear
9:15 AM 55.4 °F - 50.0 °F 82% 30.09 in 10.0 mi Calm Calm - N/A   Clear
9:35 AM 53.6 °F - 48.2 °F 82% 30.11 in 10.0 mi West 4.6 mph - N/A   Clear
9:55 AM 53.6 °F - 48.2 °F 82% 30.12 in 10.0 mi West 5.8 mph - N/A   Clear
10:15 AM 53.6 °F - 48.2 °F 82% 30.13 in 10.0 mi West 4.6 mph - N/A   Clear
10:35 AM 53.6 °F - 46.4 °F 77% 30.12 in 10.0 mi West 4.6 mph - N/A   Clear
10:55 AM 53.6 °F - 46.4 °F 77% 30.11 in 10.0 mi West 4.6 mph - N/A   Clear
11:15 AM 53.6 °F - 44.6 °F 72% 30.11 in 10.0 mi West 3.5 mph - N/A   Clear
11:35 AM 53.6 °F - 44.6 °F 72% 30.11 in 10.0 mi WNW 4.6 mph - N/A   Clear
11:55 AM 53.6 °F - 42.8 °F 67% 30.15 in 10.0 mi West 10.4 mph - N/A   Clear
12:15 PM 53.6 °F - 35.6 °F 51% 30.14 in 10.0 mi West 9.2 mph - N/A   Clear
12:35 PM 53.6 °F - 35.6 °F 51% 30.15 in 10.0 mi West 8.1 mph - N/A   Clear
12:55 PM 53.6 °F - 35.6 °F 51% 30.14 in 10.0 mi West 5.8 mph - N/A   Clear
1:15 PM 53.6 °F - 33.8 °F 47% 30.13 in 10.0 mi West 6.9 mph - N/A   Clear
1:35 PM 51.8 °F - 35.6 °F 54% 30.11 in 10.0 mi West 5.8 mph - N/A   Clear
1:55 PM 53.6 °F - 35.6 °F 51% 30.13 in 10.0 mi West 5.8 mph - N/A   Clear
2:15 PM 53.6 °F - 35.6 °F 51% 30.13 in 10.0 mi West 6.9 mph - N/A   Clear
2:35 PM 53.6 °F - 35.6 °F 51% 30.12 in 10.0 mi West 5.8 mph - N/A   Clear
2:55 PM 53.6 °F - 35.6 °F 51% 30.12 in 10.0 mi West 5.8 mph - N/A   Clear
3:15 PM 51.8 °F - 37.4 °F 58% 30.13 in 10.0 mi West 4.6 mph - N/A   Clear
3:35 PM 51.8 °F - 35.6 °F 54% 30.12 in 10.0 mi Variable 3.5 mph - N/A   Clear
3:55 PM 51.8 °F - 35.6 °F 54% 30.11 in 10.0 mi West 3.5 mph - N/A   Clear
4:15 PM 51.8 °F - 35.6 °F 54% 30.11 in 10.0 mi NNW 4.6 mph - N/A   Clear
4:35 PM 51.8 °F - 30.2 °F 44% 30.11 in 10.0 mi North 4.6 mph - N/A   Clear
4:55 PM 51.8 °F - 30.2 °F 44% 30.10 in 10.0 mi NNW 3.5 mph - N/A   Clear
5:55 PM 50.0 °F - 30.2 °F 47% 30.11 in 10.0 mi Calm Calm - N/A   Clear
6:15 PM 48.2 °F - 30.2 °F 50% 30.10 in 10.0 mi Calm Calm - N/A   Clear
6:35 PM 48.2 °F - 30.2 °F 50% 30.10 in 10.0 mi Calm Calm - N/A   Clear
6:55 PM 48.2 °F - 30.2 °F 50% 30.11 in 10.0 mi Calm Calm - N/A   Clear
7:15 PM 46.4 °F - 33.8 °F 62% 30.12 in 10.0 mi Calm Calm - N/A   Clear
7:35 PM 44.6 °F - 33.8 °F 66% 30.12 in 10.0 mi Calm Calm - N/A   Clear
7:55 PM 42.8 °F - 35.6 °F 76% 30.12 in 10.0 mi Calm Calm - N/A   Clear
8:15 PM 42.8 °F - 35.6 °F 76% 30.12 in 10.0 mi Calm Calm - N/A   Clear
8:35 PM 42.8 °F - 35.6 °F 76% 30.11 in 10.0 mi Calm Calm - N/A   Clear
8:55 PM 39.2 °F - 35.6 °F 87% 30.13 in 10.0 mi Calm Calm - N/A   Clear
9:15 PM 42.8 °F - 35.6 °F 76% 30.14 in 10.0 mi Calm Calm - N/A   Clear
9:35 PM 39.2 °F - 37.4 °F 93% 30.13 in 10.0 mi Calm Calm - N/A   Clear
9:55 PM 41.0 °F - 35.6 °F 81% 30.13 in 10.0 mi Calm Calm - N/A   Clear
10:15 PM 41.0 °F 39.0 °F 37.4 °F 87% 30.17 in 10.0 mi West 3.5 mph - N/A   Clear
10:35 PM 42.8 °F - 37.4 °F 81% 30.15 in 10.0 mi Calm Calm - N/A   Clear
10:55 PM 39.2 °F - 37.4 °F 93% 30.13 in 10.0 mi Calm Calm - N/A   Clear
11:15 PM 39.2 °F - 35.6 °F 87% 30.12 in 10.0 mi Calm Calm - N/A   Clear
11:35 PM 39.2 °F - 35.6 °F 87% 30.14 in 10.0 mi Calm Calm - N/A   Clear
11:55 PM 39.2 °F - 37.4 °F 93% 30.14 in 10.0 mi Calm Calm - N/A   Clear